[[{"header":{"parameterUnit":"m.s-1","parameterCategory":1,"la1":30.2991,"la2":30.254,"lo1":-89.0895,"lo2":-89.0444,"dy":0.0017,"dx":0.0017,"nx":28,"ny":28,"refTime":"2025-06-04T21:00:00:Z","depth":0,"parameterNumber":2,"parameterNumberName":"U-component_of_WINDS"},"data":[0,0,0,0,0,0,0,0,0,0,0,0,0,0,0,0,0,0,0,0,0,0,0,0,0,0,0,0,0,0,0,0,0,0,0,0,0,0,0,0,0,0,0,0,0,0,0,0,0,0,0,0,0,0,0,0,0,0,-4.5539,-4.554,0,-4.5617,-4.5618,-4.5619,-4.557,-4.5567,-4.5565,-4.5563,-4.5646,-4.565,-4.5655,0,0,0,0,0,0,0,0,0,0,0,0,0,-4.5353,-4.5356,-4.5539,-4.554,-4.5541,-4.5617,-4.5618,-4.5619,-4.557,-4.5567,-4.5564,-4.5562,-4.5645,-4.565,-4.5655,0,0,0,0,0,0,0,0,0,0,0,0,0,-4.5433,-4.5358,-4.5539,-4.5526,-4.5525,-4.5617,-4.5618,-4.562,-4.5571,-4.5567,-4.5564,-4.556,-4.5643,-4.5649,-4.5656,-4.5766,0,0,-4.5676,-4.5679,0,0,0,0,0,0,0,0,-4.5428,-4.544,-4.5527,-4.5527,-4.5526,-4.558,-4.5583,-4.5669,-4.5572,-4.5554,-4.5563,-4.5559,-4.5627,-4.5635,-4.5657,-4.577,-4.5773,-4.5676,-4.568,-4.5683,-4.5685,0,0,0,0,0,0,0,-4.5423,-4.5436,-4.557,-4.5528,-4.5528,-4.5518,-4.5525,-4.5599,-4.5609,-4.5555,-4.5551,-4.5561,-4.5626,-4.5651,-4.5659,-4.5775,-4.5676,-4.5682,-4.5686,-4.5689,-4.5985,-4.5989,0,0,0,0,0,0,-4.5418,-4.5432,-4.5568,-4.5573,-4.5468,-4.5524,-4.5532,-4.5567,-4.5608,-4.5611,-4.5564,-4.5559,-4.5641,-4.5651,-4.5661,-4.5795,-4.5683,-4.5689,-4.5693,-4.5982,-4.5986,-4.5991,0,0,0,0,0,0,-4.5414,-4.543,-4.5565,-4.5501,-4.5518,-4.5531,-4.557,-4.557,-4.5594,-4.5615,-4.5617,-4.5587,-4.5639,-4.5652,-4.5741,-4.5797,-4.5692,-4.5698,-4.5977,-4.5983,-4.5988,-4.6062,0,0,0,0,0,0,-4.5409,-4.5429,-4.547,-4.5502,-4.5521,-4.5641,-4.5573,-4.5574,-4.5605,-4.5599,-4.5637,-4.564,-4.5637,-4.5731,-4.5747,-4.5804,-4.5703,-4.5972,-4.598,-4.5987,-4.6054,-4.6069,-4.6082,0,0,0,0,0,-4.5402,-4.5487,-4.5472,-4.5489,-4.5572,-4.5644,-4.5655,-4.5649,-4.561,-4.5652,-4.5666,-4.5639,-4.5789,-4.5741,-4.5758,-4.5818,-4.5968,-4.5977,-4.5986,-4.6048,-4.6066,-4.6082,0,0,0,0,0,0,-4.546,-4.5491,-4.5474,-4.5572,-4.5606,-4.5636,-4.5688,-4.5669,-4.5715,-4.5707,-4.57,-4.5709,-4.5802,-4.5819,-4.5765,-4.5929,-4.5873,-4.5885,-4.5914,-4.5931,-4.5945,-4.5938,-4.5709,0,0,0,0,0,-4.5485,-4.554,-4.5564,-4.5648,-4.5666,-4.5675,-4.5706,-4.5699,-4.5734,-4.5748,-4.5768,-4.5805,-4.5861,-4.5897,-4.5949,-4.6057,-4.6066,-4.6107,-4.6121,-4.6133,-4.6144,-4.6205,-4.6224,-4.602,-4.602,-4.602,0,0,-4.5535,-4.5559,-4.5594,-4.5661,-4.5686,-4.5745,-4.5687,-4.5751,-4.5795,-4.5758,-4.5843,-4.586,-4.59,-4.6,-4.6045,-4.6017,-4.6203,-4.6144,-4.6153,-4.6158,-4.6216,-4.6235,-4.6253,-4.6026,-4.6025,-4.6024,0,0,-4.5657,-4.568,-4.5753,-4.5781,-4.582,-4.5826,-4.5844,-4.5877,-4.5887,-4.5972,-4.5947,-4.6001,-4.6096,-4.6126,-4.6154,-4.6293,-4.627,-4.631,-4.6383,-4.6442,-4.6458,-4.6473,-4.6523,-4.6541,-4.6321,-4.6321,-4.6321,0,-4.5715,-4.5801,-4.5794,-4.5861,-4.5892,-4.5862,-4.5938,-4.5965,-4.602,-4.6043,-4.6011,-4.6132,-4.6157,-4.6265,-4.6299,-4.6322,-4.6344,-4.6305,-4.6456,-4.6471,-4.6484,-4.6532,-4.6551,-4.6326,-4.6325,-4.6325,-4.6324,0,-4.5871,-4.5932,-4.5987,-4.6041,-4.6078,-4.6149,-4.6155,-4.6194,-4.6186,-4.6196,-4.6285,-4.6314,-4.6373,-4.6398,-4.639,-4.6506,-4.6488,-4.6457,-4.64,-4.6508,-4.6553,-4.6572,-4.6332,-4.6331,-4.6329,-4.6328,0,0,-4.6029,-4.608,-4.61,-4.6125,-4.6169,-4.6216,-4.6288,-4.6345,-4.638,-4.642,-4.6481,-4.6564,-4.6537,-4.6569,-4.6564,-4.6617,-4.6727,-4.658,-4.6581,-4.6606,-4.6859,-4.6881,-4.6902,-4.6713,-4.6717,-4.6719,-4.6855,0,-4.6154,-4.6276,-4.6274,-4.6388,-4.6446,-4.642,-4.6483,-4.6518,-4.653,-4.6582,-4.6597,-4.6656,-4.6615,-4.6634,-4.6685,-4.6702,-4.6777,-4.6693,-4.6771,-4.6774,-4.676,-4.6926,-4.6949,-4.7076,-4.6873,-4.6876,-4.6878,0,-4.6314,-4.636,-4.6481,-4.6518,-4.6542,-4.6598,-4.6652,-4.6701,-4.6742,-4.6747,-4.6785,-4.6774,-4.6849,-4.6792,-4.6897,-4.6839,-4.6872,-4.6886,-4.6891,-4.6897,-4.6831,-4.6937,-4.7116,-4.7135,-4.6906,-4.6903,-4.6901,0,-4.6418,-4.651,-4.6594,-4.6617,-4.6662,-4.6703,-4.6724,-4.6761,-4.6796,-4.6845,-4.6868,-4.6925,-4.6956,-4.7001,-4.7006,-4.6964,-4.7113,-4.7055,-4.7121,-4.7121,-4.7152,-4.715,-4.7339,-4.7174,-4.7174,-4.7174,-4.7173,0,-4.6557,-4.6632,-4.6642,-4.6694,-4.6778,-4.6776,-4.686,-4.6878,-4.6912,-4.6969,-4.6952,-4.7006,-4.7009,-4.7066,-4.7071,-4.7158,-4.7173,-4.7181,-4.7181,-4.7182,-4.7181,-4.7202,-4.7193,-4.7179,-4.7178,-4.7177,-4.7176,0,-4.6686,-4.6695,-4.6786,-4.6823,-4.6834,-4.6895,-4.6927,-4.6978,-4.699,-4.7062,-4.7079,-4.7099,-4.7165,-4.7175,-4.7253,-4.7256,-4.7361,-4.7353,-4.7347,-4.7346,-4.7411,-4.7405,-4.762,-4.7648,-4.7466,-4.7467,-4.7469,0,-4.6773,-4.683,-4.6874,-4.691,-4.6933,-4.6992,-4.7029,-4.7031,-4.707,-4.7123,-4.7168,-4.7232,-4.7283,-4.7391,-4.7413,-4.7473,-4.7466,-4.7538,-4.7475,-4.7475,-4.7468,-4.7464,-4.747,-4.7549,-4.7551,-4.7552,-4.7554,0,-4.6928,-4.6931,-4.6983,-4.7039,-4.7083,-4.7127,-4.7168,-4.72,-4.7208,-4.7253,-4.732,-4.736,-4.744,-4.7505,-4.7566,-4.759,-4.7575,-4.7574,-4.7592,-4.7593,-4.7587,-4.7592,-4.738,-4.7568,-4.7567,-4.7566,-4.7565,-4.7564,-4.7038,-4.7089,-4.7128,-4.7188,-4.722,-4.726,-4.731,-4.7329,-4.7385,-4.7449,-4.7448,-4.7523,-4.7566,-4.7645,-4.7674,-4.7734,-4.7711,-4.7737,-4.7744,-4.775,-4.7757,-4.7579,-4.7745,-4.7745,-4.7744,-4.7744,-4.7744,0,-4.7192,-4.7217,-4.7272,-4.7331,-4.738,-4.7361,-4.7407,-4.7449,-4.7514,-4.7555,-4.7606,-4.7685,-4.7749,-4.7778,-4.7841,-4.7884,-4.7879,-4.7901,-4.7897,-4.7903,-4.7773,-4.7751,-4.7904,-4.7904,-4.7904,-4.7904,-4.7904,-4.7904,-4.7277,-4.7362,-4.737,-4.7472,-4.7497,-4.7568,-4.7597,-4.7635,-4.7668,-4.7756,-4.7809,-4.7827,-4.7864,-4.7931,-4.799,-4.7997,-4.8022,-4.8047,-4.8051,-4.7929,-4.7912,-4.7897,-4.7876,-4.8052,-4.8053,-4.8176,-4.8177,-4.8178]},{"header":{"parameterUnit":"m.s-1","parameterCategory":1,"la1":30.2991,"la2":30.254,"lo1":-89.0895,"lo2":-89.0444,"dy":0.0017,"dx":0.0017,"nx":28,"ny":28,"refTime":"2025-06-04T21:00:00:Z","depth":0,"parameterNumber":3,"parameterNumberName":"V-component_of_WINDS"},"data":[0,0,0,0,0,0,0,0,0,0,0,0,0,0,0,0,0,0,0,0,0,0,0,0,0,0,0,0,0,0,0,0,0,0,0,0,0,0,0,0,0,0,0,0,0,0,0,0,0,0,0,0,0,0,0,0,0,0,-0.3975,-0.3977,0,-0.4172,-0.4174,-0.4177,-0.4251,-0.4251,-0.425,-0.425,-0.4447,-0.4452,-0.4458,0,0,0,0,0,0,0,0,0,0,0,0,0,-0.3657,-0.3663,-0.3974,-0.3977,-0.3979,-0.4172,-0.4174,-0.4177,-0.4251,-0.4251,-0.425,-0.4249,-0.4445,-0.4451,-0.4458,0,0,0,0,0,0,0,0,0,0,0,0,0,-0.3819,-0.3665,-0.3974,-0.404,-0.4048,-0.4171,-0.4175,-0.4178,-0.4251,-0.4251,-0.425,-0.4249,-0.4442,-0.4451,-0.4459,-0.4531,0,0,-0.4486,-0.449,0,0,0,0,0,0,0,0,-0.381,-0.383,-0.4028,-0.4035,-0.4044,-0.4186,-0.4135,-0.4296,-0.4252,-0.4174,-0.4249,-0.4248,-0.436,-0.4376,-0.4415,-0.454,-0.4548,-0.4487,-0.4492,-0.4496,-0.4498,0,0,0,0,0,0,0,-0.3798,-0.3822,-0.4052,-0.403,-0.4041,-0.4058,-0.408,-0.4166,-0.4269,-0.4181,-0.4187,-0.4209,-0.4365,-0.4406,-0.442,-0.4551,-0.4486,-0.4494,-0.45,-0.4503,-0.4746,-0.4748,0,0,0,0,0,0,-0.3777,-0.3812,-0.4046,-0.4058,-0.3923,-0.4064,-0.4089,-0.4141,-0.4269,-0.4287,-0.421,-0.4212,-0.4392,-0.4409,-0.4427,-0.452,-0.4496,-0.4504,-0.4509,-0.4745,-0.4747,-0.4748,0,0,0,0,0,0,-0.377,-0.3797,-0.4038,-0.3937,-0.3969,-0.4071,-0.4129,-0.4146,-0.4187,-0.4291,-0.4309,-0.4233,-0.4392,-0.4415,-0.4505,-0.4528,-0.4508,-0.4516,-0.4744,-0.4746,-0.4747,-0.4705,0,0,0,0,0,0,-0.376,-0.3794,-0.3823,-0.3937,-0.3974,-0.4114,-0.4131,-0.415,-0.4203,-0.4207,-0.4318,-0.4335,-0.4393,-0.4492,-0.4514,-0.4539,-0.4522,-0.4742,-0.4744,-0.4747,-0.4705,-0.4706,-0.4706,0,0,0,0,0,-0.3749,-0.3802,-0.3824,-0.3852,-0.4013,-0.4115,-0.4136,-0.4203,-0.4204,-0.4234,-0.4301,-0.4332,-0.4522,-0.45,-0.4526,-0.4554,-0.4741,-0.4744,-0.4747,-0.4705,-0.4706,-0.4706,0,0,0,0,0,0,-0.3685,-0.3818,-0.3844,-0.3936,-0.4014,-0.4128,-0.4167,-0.4201,-0.4279,-0.428,-0.4358,-0.4382,-0.4466,-0.4519,-0.4493,-0.4631,-0.4633,-0.4641,-0.4593,-0.4595,-0.4595,-0.458,-0.453,0,0,0,0,0,-0.3682,-0.3755,-0.3867,-0.3937,-0.3975,-0.4064,-0.4111,-0.4156,-0.4239,-0.4272,-0.4346,-0.4424,-0.4502,-0.4551,-0.4628,-0.4713,-0.4739,-0.4745,-0.4746,-0.4746,-0.4752,-0.4802,-0.4807,-0.4757,-0.4757,-0.4757,0,0,-0.3676,-0.3757,-0.3799,-0.3926,-0.3992,-0.4066,-0.4091,-0.4167,-0.4223,-0.4283,-0.4374,-0.443,-0.4523,-0.4612,-0.4654,-0.4658,-0.4771,-0.4749,-0.4748,-0.4755,-0.4805,-0.481,-0.4814,-0.4759,-0.4759,-0.4758,0,0,-0.3702,-0.3771,-0.3838,-0.3904,-0.4005,-0.4064,-0.408,-0.4189,-0.423,-0.4322,-0.437,-0.4435,-0.4567,-0.4632,-0.4682,-0.4735,-0.4766,-0.4757,-0.4759,-0.4807,-0.4811,-0.4815,-0.4834,-0.484,-0.4763,-0.4763,-0.4763,0,-0.3681,-0.3796,-0.3868,-0.3943,-0.3998,-0.4058,-0.4126,-0.4186,-0.4305,-0.4341,-0.4345,-0.4513,-0.4579,-0.4684,-0.4697,-0.4736,-0.4756,-0.4745,-0.4805,-0.481,-0.4814,-0.4834,-0.4841,-0.4761,-0.4761,-0.4761,-0.4762,0,-0.3766,-0.3844,-0.3886,-0.4002,-0.4062,-0.4132,-0.4214,-0.4266,-0.4306,-0.4364,-0.4458,-0.454,-0.4635,-0.4664,-0.4702,-0.4775,-0.4774,-0.479,-0.4794,-0.4816,-0.4836,-0.4844,-0.4759,-0.4759,-0.476,-0.476,0,0,-0.3757,-0.3914,-0.3928,-0.3982,-0.4098,-0.4159,-0.4232,-0.4328,-0.4371,-0.4451,-0.4515,-0.4626,-0.4642,-0.4698,-0.4745,-0.4787,-0.4825,-0.4798,-0.4802,-0.4801,-0.4911,-0.4898,-0.4906,-0.4847,-0.4848,-0.485,-0.4903,0,-0.3799,-0.3935,-0.4003,-0.4109,-0.4183,-0.4242,-0.4306,-0.4384,-0.444,-0.451,-0.4572,-0.465,-0.4665,-0.47,-0.4744,-0.4811,-0.4848,-0.4808,-0.4906,-0.4908,-0.4881,-0.4916,-0.4903,-0.4949,-0.4911,-0.4912,-0.4913,0,-0.3867,-0.3949,-0.4064,-0.4173,-0.4206,-0.4262,-0.4356,-0.4422,-0.4511,-0.4549,-0.4613,-0.4659,-0.4738,-0.4737,-0.4846,-0.4818,-0.4862,-0.49,-0.4904,-0.4916,-0.4912,-0.4929,-0.4966,-0.4972,-0.4926,-0.4925,-0.4924,0,-0.385,-0.3989,-0.4076,-0.4121,-0.4249,-0.4288,-0.4343,-0.4431,-0.4485,-0.4566,-0.4602,-0.469,-0.4738,-0.4805,-0.4873,-0.4866,-0.4977,-0.4981,-0.501,-0.5009,-0.5031,-0.5029,-0.5075,-0.5058,-0.5058,-0.5058,-0.5058,0,-0.3891,-0.3958,-0.4071,-0.4124,-0.4202,-0.4279,-0.4353,-0.4412,-0.4491,-0.4556,-0.4612,-0.4671,-0.4758,-0.4828,-0.4882,-0.4965,-0.4986,-0.5019,-0.5032,-0.5014,-0.501,-0.5044,-0.5043,-0.506,-0.5059,-0.5059,-0.5059,0,-0.3885,-0.3963,-0.4062,-0.4177,-0.4207,-0.4259,-0.4357,-0.441,-0.447,-0.4552,-0.4576,-0.467,-0.4756,-0.4831,-0.4943,-0.4979,-0.5065,-0.5081,-0.5035,-0.5043,-0.5069,-0.5065,-0.5139,-0.5153,-0.5125,-0.5126,-0.5126,0,-0.3906,-0.396,-0.4081,-0.413,-0.4185,-0.4262,-0.4318,-0.4396,-0.4451,-0.4557,-0.4598,-0.4689,-0.4765,-0.4899,-0.4977,-0.5063,-0.5082,-0.5102,-0.5096,-0.5076,-0.5084,-0.508,-0.5086,-0.5102,-0.5102,-0.5102,-0.5102,0,-0.3935,-0.3972,-0.4051,-0.4144,-0.4209,-0.4286,-0.4364,-0.44,-0.4492,-0.4551,-0.4641,-0.4701,-0.4818,-0.4906,-0.5002,-0.5058,-0.5095,-0.5104,-0.5115,-0.5097,-0.5069,-0.5086,-0.5036,-0.5101,-0.5101,-0.5102,-0.5102,-0.5102,-0.3944,-0.3995,-0.4089,-0.4176,-0.4243,-0.4315,-0.4372,-0.444,-0.4517,-0.4619,-0.466,-0.4752,-0.484,-0.4973,-0.5028,-0.51,-0.5106,-0.5123,-0.5127,-0.513,-0.5128,-0.5058,-0.5118,-0.5118,-0.5118,-0.5118,-0.5118,0,-0.3976,-0.4041,-0.4119,-0.4228,-0.4296,-0.4328,-0.4416,-0.447,-0.4551,-0.4631,-0.4706,-0.481,-0.4897,-0.4982,-0.5073,-0.5114,-0.5134,-0.5136,-0.5133,-0.5146,-0.5116,-0.5098,-0.5118,-0.5118,-0.5118,-0.5118,-0.5118,-0.5118,-0.4002,-0.4091,-0.4138,-0.4261,-0.4324,-0.4416,-0.4464,-0.4531,-0.4595,-0.4709,-0.4783,-0.4838,-0.492,-0.5018,-0.5099,-0.5122,-0.5153,-0.515,-0.5177,-0.5149,-0.5148,-0.5147,-0.513,-0.5156,-0.5156,-0.5201,-0.5201,-0.5202]}]]